{"data":{"norad_id":58817,"epoch":"2026-05-25T04:07:48.431712Z","epoch_age_seconds":53493,"freshness":"FRESH","line1":"1 58817U 24015A   26145.17208833  .00000054  00000+0  48381-4 0  9997","line2":"2 58817  64.5131 147.7339 0009985 248.8783 111.1235 14.42704765123455","mean_motion":14.42704765,"eccentricity":0.0009985,"inclination_deg":64.5131,"raan_deg":147.7339,"arg_perigee_deg":248.8783,"mean_anomaly_deg":111.1235,"bstar":4.8381e-5,"rev_number":12345,"period_min":99.812521240269,"perigee_km":742.45886118537,"apogee_km":756.69290381172,"semimajor_km":7127.7128824985,"source":"CELESTRAK","updated_at":"2026-05-25T13:38:01.002801Z"}}